Location: Étang Rond
(42.7927°N, 1.0661°E)
Time: 22:11:56
(UTC+00:00)

CENTAUR R/B - Pass Details

Date: 08 November 2025
Orbit: 633 x 1547 km, 63.4° (Epoch: 13 December)

Event Time Altitude Azimuth Distance (km) Brightness Sun altitude
Exits shadow 05:39:24 - 326° (NW) 3,921 5.2 -11.2°
Reaches altitude 10° 05:41:47 10° 334° (NNW) 3,237 4.9 -10.8°
Maximum altitude 05:49:07 36° 38° (NE) 2,099 4.5 -9.5°
Drops below altitude 10° 05:57:26 10° 102° (ESE) 3,688 7.3 -8.0°
Sets 06:00:55 0° 111° (ESE) 4,702 8.6 -7.4°
